EW9904 Weather Reports


time (UTC)temp
C
wind
direction
speed
KPH
gust
KPH
rain 1hr
cm
rain 24hr
cm
rain mn
cm
humidity
%
barometer
mb
20260504201505 24 212 6.4 12.9 0.00 0.00 0.00 36 1011.4
20260504201005 23 255 6.4 14.5 0.00 0.00 0.00 37 1011.4
20260504200505 23 227 4.8 19.3 0.00 0.00 0.00 35 1011.4
20260504200004 24 302 4.8 12.9 0.00 0.00 0.00 35 1011.4
20260504195503 24 246 4.8 12.9 0.00 0.00 0.00 36 1011.5
20260504195004 23 283 4.8 14.5 0.00 0.00 0.00 40 1011.5
20260504194503 24 257 4.8 16.1 0.00 0.00 0.00 36 1011.6
20260504193504 24 287 6.4 19.3 0.00 0.00 0.00 37 1011.6
20260504192502 25 258 4.8 14.5 0.00 0.00 0.00 37 1011.7
20260504192004 23 217 6.4 16.1 0.00 0.00 0.00 36 1011.8
20260504191503 24 287 6.4 16.1 0.00 0.00 0.00 37 1011.9
20260504191004 23 153 4.8 12.9 0.00 0.00 0.00 37 1011.9
20260504190504 24 300 6.4 14.5 0.00 0.00 0.00 36 1012.0
20260504190008 23 259 6.4 14.5 0.00 0.00 0.00 34 1012.0
20260504185503 23 313 6.4 16.1 0.00 0.00 0.00 34 1012.2
20260504184503 23 5 4.8 20.9 0.00 0.00 0.00 37 1012.2
20260504183503 24 233 4.8 12.9 0.00 0.00 0.00 35 1012.3
20260504183005 23 186 4.8 17.7 0.00 0.00 0.00 34 1012.3
20260504182502 24 244 4.8 17.7 0.00 0.00 0.00 37 1012.4
20260504182004 24 335 4.8 14.5 0.00 0.00 0.00 41 1012.3
20260504181503 23 312 6.4 20.9 0.00 0.00 0.00 35 1012.5
20260504180504 23 336 4.8 12.9 0.00 0.00 0.00 34 1012.7
20260504175503 23 329 3.2 12.9 0.00 0.00 0.00 36 1012.6
20260504175005 23 331 4.8 17.7 0.00 0.00 0.00 37 1012.7
20260504174504 23 327 4.8 17.7 0.00 0.00 0.00 39 1012.8
20260504174005 23 281 4.8 17.7 0.00 0.00 0.00 38 1012.8
20260504173503 23 320 4.8 12.9 0.00 0.00 0.00 37 1012.8
20260504173004 23 235 4.8 12.9 0.00 0.00 0.00 40 1012.9
20260504172004 23 261 8.0 17.7 0.00 0.00 0.00 35 1013.1
20260504171504 23 261 4.8 17.7 0.00 0.00 0.00 39 1013.2
20260504171005 23 236 4.8 14.5 0.00 0.00 0.00 35 1013.1
20260504170502 23 292 6.4 24.1 0.00 0.00 0.00 35 1013.3
20260504150503 21 250 4.8 17.7 0.00 0.00 0.00 54 1014.3
20260504140503 18 321 6.4 16.1 0.00 0.00 0.00 55 1014.8
20260504130503 16 196 6.4 14.5 0.00 0.00 0.00 65 1015.5
20260504110502 11 209 3.2 14.5 0.00 0.00 0.00 78 1016.4
20260504100501 10 245 1.6 6.4 0.00 0.00 0.00 78 1016.1
20260504082002 10 187 3.2 8.0 0.00 0.00 0.00 76 1016.4
20260504080501 9 244 1.6 8.0 0.00 0.00 0.00 76 1016.5
20260504050500 8 246 1.6 8.0 0.00 0.00 0.00 65 1016.4
20260504050006 8 250 1.6 3.2 0.00 0.00 0.00 65 1016.4
20260504045005 8 250 1.6 6.4 0.00 0.00 0.00 66 1016.3
20260504044005 8 250 1.6 8.0 0.00 0.00 0.00 65 1016.3
20260504043505 8 250 1.6 8.0 0.00 0.00 0.00 65 1016.3
20260504043007 8 227 1.6 6.4 0.00 0.00 0.00 65 1016.4
20260504042504 8 228 1.6 6.4 0.00 0.00 0.00 66 1016.2
20260504041506 8 228 1.6 8.0 0.00 0.00 0.00 65 1016.1
20260504041006 8 228 1.6 8.0 0.00 0.00 0.00 64 1016.1
20260504040506 8 236 1.6 4.8 0.00 0.00 0.00 63 1016.0
20260504035505 8 236 1.6 8.0 0.00 0.00 0.00 64 1015.9
20260504035005 8 236 1.6 8.0 0.00 0.00 0.00 65 1015.9
20260504034505 8 202 1.6 6.4 0.00 0.00 0.00 64 1015.9
20260504034005 8 207 1.6 9.7 0.00 0.00 0.00 64 1015.8
20260504033506 8 205 1.6 9.7 0.00 0.00 0.00 63 1015.7
20260504033007 8 236 1.6 6.4 0.00 0.00 0.00 63 1015.7
20260504032507 8 236 1.6 3.2 0.00 0.00 0.00 63 1015.7
20260504031505 8 236 1.6 4.8 0.00 0.00 0.00 64 1015.7
20260504031006 8 236 1.6 4.8 0.00 0.00 0.00 64 1015.7
20260504030505 8 236 1.6 6.4 0.00 0.00 0.00 64 1015.7
20260504030006 8 236 1.6 6.4 0.00 0.00 0.00 65 1015.7
20260504025006 8 263 1.6 4.8 0.00 0.00 0.00 66 1015.7
20260504024504 7 265 1.6 4.8 0.00 0.00 0.00 66 1015.7
20260504024004 7 344 0.0 3.2 0.00 0.00 0.00 68 1015.7
20260504023005 7 344 0.0 1.6 0.00 0.00 0.00 69 1015.7
20260504022504 7 344 0.0 1.6 0.00 0.00 0.00 70 1015.7
20260504022006 7 344 0.0 3.2 0.00 0.00 0.00 69 1015.7
20260504021505 7 344 0.0 3.2 0.00 0.00 0.00 66 1015.7
20260504020008 7 344 0.0 3.2 0.00 0.00 0.00 67 1015.6
20260504015504 7 344 0.0 1.6 0.00 0.00 0.00 68 1015.5
20260504015006 7 344 0.0 1.6 0.00 0.00 0.00 65 1015.5
20260504014504 8 344 1.6 3.2 0.00 0.00 0.00 66 1015.5
20260504014005 8 344 0.0 3.2 0.00 0.00 0.00 64 1015.5
20260504013504 8 344 0.0 1.6 0.00 0.00 0.00 64 1015.4
20260504013006 8 344 1.6 3.2 0.00 0.00 0.00 64 1015.3
20260504012005 8 344 0.0 3.2 0.00 0.00 0.00 64 1015.3
20260504011005 8 344 0.0 1.6 0.00 0.00 0.00 64 1015.2
20260504010504 9 344 0.0 1.6 0.00 0.00 0.00 63 1015.2
20260504010006 9 344 0.0 1.6 0.00 0.00 0.00 61 1015.1
20260504005503 9 344 0.0 1.6 0.00 0.00 0.00 61 1015.1
20260504005004 10 344 1.6 3.2 0.00 0.00 0.00 60 1015.0
20260504004504 10 344 1.6 3.2 0.00 0.00 0.00 60 1015.0
20260504004004 10 344 0.0 1.6 0.00 0.00 0.00 57 1015.0
20260504003503 10 344 0.0 1.6 0.00 0.00 0.00 58 1014.8
20260504003005 10 344 0.0 1.6 0.00 0.00 0.00 58 1014.7
20260504002503 10 344 0.0 3.2 0.00 0.00 0.00 55 1014.6
20260504002004 10 344 0.0 4.8 0.00 0.00 0.00 55 1014.5
20260504001504 10 344 0.0 4.8 0.00 0.00 0.00 56 1014.5
20260504001004 11 344 0.0 3.2 0.00 0.00 0.00 52 1014.5
20260503235503 12 344 0.0 1.6 0.00 0.00 0.00 48 1014.4
20260503235004 12 344 0.0 1.6 0.00 0.00 0.00 47 1014.4
20260503234503 12 344 1.6 4.8 0.00 0.00 0.00 44 1014.4
20260503234005 13 346 1.6 9.7 0.00 0.00 0.00 45 1014.3
20260503233504 13 346 1.6 9.7 0.00 0.00 0.00 45 1014.4
20260503233006 13 351 3.2 9.7 0.00 0.00 0.00 43 1014.3
20260503232503 13 355 3.2 9.7 0.00 0.00 0.00 44 1014.3
20260503232004 13 349 3.2 8.0 0.00 0.00 0.00 43 1014.3
20260503231504 13 349 4.8 14.5 0.00 0.00 0.00 43 1014.2
20260503231004 14 265 4.8 19.3 0.00 0.00 0.00 42 1014.2
20260503230006 14 320 3.2 12.9 0.00 0.00 0.00 43 1014.1
20260503225503 14 338 4.8 12.9 0.00 0.00 0.00 40 1014.1
20260503225005 14 309 4.8 20.9 0.00 0.00 0.00 41 1014.0
20260503224503 14 346 6.4 20.9 0.00 0.00 0.00 40 1014.1
20260503224004 14 329 6.4 20.9 0.00 0.00 0.00 41 1014.0
20260503223504 14 312 6.4 24.1 0.00 0.00 0.00 40 1014.1
20260503223005 14 297 9.7 27.4 0.00 0.00 0.00 39 1014.0
20260503222004 15 286 11.3 24.1 0.00 0.00 0.00 38 1013.9
20260503221503 15 341 11.3 29.0 0.00 0.00 0.00 39 1014.1
20260503221004 15 336 11.3 29.0 0.00 0.00 0.00 39 1014.1
20260503220008 15 307 11.3 30.6 0.00 0.00 0.00 38 1014.2
20260503215004 15 219 6.4 27.4 0.00 0.00 0.00 38 1014.0
20260503214503 15 321 9.7 27.4 0.00 0.00 0.00 39 1014.0
20260503214004 15 205 11.3 27.4 0.00 0.00 0.00 39 1014.0
20260503213503 15 316 11.3 27.4 0.00 0.00 0.00 40 1014.0
20260503213005 15 17 9.7 25.7 0.00 0.00 0.00 40 1013.9
20260503212503 15 324 8.0 19.3 0.00 0.00 0.00 40 1013.9
20260503212003 15 329 8.0 22.5 0.00 0.00 0.00 38 1014.0
20260503211503 15 254 14.5 37.0 0.00 0.00 0.00 38 1013.8
20260503211004 15 348 19.3 37.0 0.00 0.00 0.00 37 1013.8
20260503210504 15 360 16.1 32.2 0.00 0.00 0.00 37 1013.9
20260503210006 15 360 16.1 32.2 0.00 0.00 0.00 36 1013.9
20260503205004 15 346 11.3 27.4 0.00 0.00 0.00 37 1013.9
20260503204503 15 247 11.3 33.8 0.00 0.00 0.00 38 1013.9
20260503204004 15 346 11.3 33.8 0.00 0.00 0.00 36 1013.8
20260503203504 15 327 9.7 32.2 0.00 0.00 0.00 36 1013.9
20260503203005 15 250 9.7 29.0 0.00 0.00 0.00 38 1013.9
20260503202503 15 282 12.9 35.4 0.00 0.00 0.00 34 1013.9